Overview Statistics Trail Chart Weather Telemetry Raw packets
 

This is the latest recevied weather packets stored in our database for station/object N7ZAP. If no packets are shown the sender has not sent any weather packets the latest 10 day(s).

<< 10 11 12 13 14 15 16 >>
Time Temp. Humidity Pressure Rain* Wind** Luminosity Snow
1788624989 30° C 37% 1022.4 hPa 0 mm - - -
1788624686 29.44° C 36% 1022.7 hPa 0 mm - - -
1788624381 28.89° C 37% 1022.5 hPa 0 mm - - -
1788624081 28.33° C 39% 1022.4 hPa 0 mm - - -
1788623781 28.33° C 39% 1022.5 hPa 0 mm - - -
1788623479 28.33° C 40% 1022.5 hPa 0 mm - - -
1788623174 28.33° C 41% 1022.3 hPa 0 mm - - -
1788622870 27.78° C 40% 1022.5 hPa 0 mm - - -
1788622566 27.78° C 41% 1022.3 hPa 0 mm - - -
1788622260 27.22° C 43% 1022.5 hPa 0 mm - - -
1788621955 27.22° C 43% 1022.3 hPa 0 mm - - -
1788621650 27.22° C 42% 1022.1 hPa 0 mm - - -
1788621345 26.67° C 46% 1022.5 hPa 0 mm - - -
1788621040 26.67° C 45% 1022.4 hPa 0 mm - - -
1788620736 26.11° C 47% 1022.4 hPa 0 mm - - -
1788620434 26.11° C 47% 1022.1 hPa 0 mm - - -
1788620133 25.56° C 48% 1022.5 hPa 0 mm - - -
1788619833 25° C 49% 1022.3 hPa 0 mm - - -
1788619533 24.44° C 51% 1022.4 hPa 0 mm - - -
1788619232 23.89° C 53% 1022.1 hPa 0 mm - - -
1788618931 22.78° C 55% 1022.4 hPa 0 mm - - -
1788618627 22.22° C 57% 1022.3 hPa 0 mm - - -
1788618326 21.67° C 58% 1022.5 hPa 0 mm - - -
1788618021 21.67° C 58% 1022.6 hPa 0 mm - - -
1788617721 21.67° C 59% 1022.6 hPa 0 mm - - -

* Rain latest hour (hover to see other rain measurements)
** Current wind speed in m/s (hover to see current wind gust speed)